Weather in Gribanovsky

Russia / Voronezh Oblast     51°27′23″N   41°58′47″E
temp.,
°C
wind,
m/s
gust,
m/s
humid.,
%
clouds,
%
prec.,
mm/h
press.,
hPa
HPBL,
m
28 february, sun
sun2800:00−8nnw499373 0.0 1012384
03:00−9nw379450 0.0 1013240
06:00−9nw37940 0.0 1014230
09:00−8nw47895 0.0 1015382
12:00−6nw468777 0.0 1016543
15:00−4nw458788 0.1 1016622
18:00−5nnw3693100 0.1 1017406
21:00−7nnw269498 0.1 1019227
1 march, mon
mon100:00−8n239488 0.0 102081
03:00−9n239571 0.0 102260
06:00−10n23930 0.0 102365
09:00−9n23910 0.0 1026180
12:00−6nw238553 0.0 1026420
15:00−4nw348676 0.0 1026519
18:00−6w239193 0.0 102574
21:00−6wsw359194 0.0 1025103
2 march, tue
tue200:00−4wsw51091100 0.0 1023431
03:00−3wsw61486100 0.0 1020460
06:00−2wsw81593100 0.1 1016541
09:00−1wsw91696100 1.2 1013754
12:00+1w81598100 1.6 1010724
15:00+1wnw81397100 2.0 1009636
18:000nw61298100 0.3 1009477
21:00−2wnw6139385 0.3 1011412
3 march, wed
wed300:00−2wnw6129479 0.0 1010403
03:00−2nw6119383 0.1 1011527
06:00−3nw61091100 0.1 1011667
09:00−3nw71189100 0.2 1013836
12:00−3nw81188100 0.1 1015918
15:00−3nw81182100 0.2 1016946
18:00−3nw61286100 0.1 1017922
21:00−4nw6139187 0.1 1019531
4 march, thu
thu400:00−5nw499355 0.0 1020277
03:00−6wnw369528 0.0 1021138
06:00−6w349548 0.0 102167
09:00−3wsw499024 0.0 1021400
12:00−1wsw610879 0.0 1020656
15:00+1wsw6118713 0.0 1017681
18:00−1sw5128218 0.0 1015279
21:00−1sw6158411 0.0 1014395